Home > Weather > Mandurah > Past weeks

Flag for Australia Past Weather in Mandurah, Western Australia, Australia — Yesterday and Last 2 Weeks

Now
49 °F

Cool.


Feels Like: 48 °F
Forecast: 53 / 60 °F
Wind: 3 mph from South

Location: Mandurah Aws

Current Time: Jul 2, 2016 at 8:22:36 AM

Latest Report: Jul 2, 2016 at 6:00 AM


Visibility: N/A

Pressure: 30.25 "Hg

Humidity: 86%

Dew Point: 45 °F

Location of MandurahLocation

Past Weather in Mandurah — Graph

°F

Mandurah Temperature Yesterday

Maximum temperature yesterday: 64 °F (at 2:00 PM)
Minimum temperature yesterday: 47 °F (at 6:00 AM)
Average temperature yesterday: 54 °F

High & Low Weather Summary for the Past Weeks

 TemperatureHumidityPressure
High65 °F (Jun 19, 2:00 PM)100% (Jun 19, 5:00 PM)30.37 "Hg (Jun 19, 5:00 PM)
Low47 °F (Jun 30, 8:00 AM)46% (Jul 1, 2:00 PM)29.75 "Hg (Jun 19, 3:00 PM)
Average57 °F76%30.08 "Hg
* Reported Jun 17 6:00 AM — Jul 2 6:00 AM, Mandurah, Weather by CustomWeather, © 2016

Note: Actual official high and low records may vary slightly from our data, if they occured in-between our weather recording intervals... More about our weather records

Advertising

Mandurah Weather History for the Previous 24 Hours

Scroll right to see more
 ConditionsComfort  
Time TempWeatherWind HumidityBarometerVisibility
6:00 AM
Sat, Jul 2
49 °FCool.3 mph86%30.25 "HgN/A
5:00 AM49 °FCool.5 mph82%30.26 "HgN/A
3:00 AM49 °FCool.3 mph75%30.28 "HgN/A
2:00 AM50 °FCool.5 mph72%30.28 "HgN/A
12:00 AM51 °FCool.3 mph73%30.30 "HgN/A
11:00 PM
Fri, Jul 1
50 °FCool.2 mph78%30.31 "HgN/A
9:00 PM53 °FCool.3 mph75%30.32 "HgN/A
8:00 PM55 °FCool.2 mph81%30.31 "HgN/A
6:00 PM58 °FCool.3 mph65%30.28 "HgN/A
5:00 PM61 °FRefreshingly cool.2 mph54%30.27 "HgN/A
3:00 PM63 °FMild.3 mph50%30.28 "HgN/A
2:00 PM64 °FMild.3 mph46%30.29 "HgN/A
12:00 PM63 °FMild.5 mph53%30.34 "HgN/A
11:00 AM59 °FRefreshingly cool.8 mph59%30.36 "HgN/A
9:00 AM52 °FCool.6 mph72%30.37 "HgN/A
8:00 AM49 °FCool.5 mph82%30.36 "HgN/A
Weather by CustomWeather, © 2016

See weather overviewHow to use our weather pages